Vorticity
9 6 6 6 6 4 1 4 11 11 7 11 17 19 20 21 24 21 22 20 22 22 21 22 20 20 22 24 26 28 22 18 32 21 15 -22 -10 -20
7 7 5 3 1 4 6 10 13 14 14 21 20 22 28 26 21 16 18 20 19 20 20 18 16 17 7 11 14 20 37 20 17 37 35 9 -14 -20
5 2 2 4 4 8 14 16 16 15 15 19 22 24 19 16 19 21 19 18 16 16 18 19 19 18 17 20 15 11 12 39 14 17 35 25 7 -4
2 2 2 6 11 13 15 18 17 19 15 16 21 16 11 22 23 23 25 21 16 15 13 13 15 9 13 18 10 7 16 28 27 10 16 35 24 4
2 4 7 12 15 17 18 20 16 14 15 14 15 8 23 22 24 23 19 16 15 11 11 16 20 24 25 22 17 10 16 24 32 10 11 7 33 37
6 11 14 16 19 20 19 14 14 15 15 12 4 27 28 8 7 9 17 17 15 16 25 19 17 17 19 21 24 25 27 38 35 15 5 14 13 40
15 14 17 19 21 20 18 15 13 14 11 1 26 23 13 14 16 11 24 21 21 21 18 24 23 29 26 22 22 25 32 44 34 19 5 8 9 13
14 20 21 23 23 16 14 11 11 9 -7 32 22 15 11 25 22 18 16 23 22 25 18 24 22 27 26 28 30 35 42 38 36 23 5 8 9 8
20 22 24 23 17 13 12 11 9 -3 34 24 12 11 15 19 19 26 26 28 25 21 13 35 19 34 25 24 23 33 33 36 40 20 4 7 13 13
25 25 21 18 12 10 9 5 0 22 35 8 16 20 16 22 27 24 20 28 26 19 16 26 4 9 12 10 5 26 35 40 40 14 7 10 11 16
24 21 14 10 9 5 1 2 15 50 8 21 24 22 27 26 15 22 27 28 16 19 13 20 1 9 15 17 18 30 36 45 39 10 8 12 13 16
21 14 9 7 3 0 4 26 53 9 21 28 32 23 8 11 11 15 7 26 22 29 1 22 4 12 -6 9 34 1 23 35 35 9 10 15 14 5
11 9 5 2 3 15 41 43 8 20 37 16 5 10 11 4 10 9 9 14 16 26 6 33 2 -1 9 8 6 11 4 33 40 37 14 14 17 6
5 4 7 16 35 48 34 10 21 36 3 10 8 6 12 22 26 17 16 16 8 13 6 11 19 15 6 5 8 1 2 37 27 23 29 33 38 39
15 29 40 43 37 27 9 22 33 4 7 5 24 29 28 22 17 7 10 10 14 19 15 14 13 16 23 32 34 4 27 14 9 14 37 23 28 33
37 35 30 27 20 10 23 27 3 6 18 29 17 15 12 11 10 11 17 22 23 21 24 24 27 31 22 15 10 3 20 -1 16 13 24 29 26 25
28 26 26 19 16 26 20 3 7 24 16 19 20 16 17 16 16 19 10 13 18 24 30 36 5 6 23 30 22 11 14 29 16 19 17 9 9 13
24 25 17 22 30 15 4 9 26 12 17 12 15 15 16 18 16 13 14 15 20 14 14 43 0 17 11 31 25 4 15 16 16 -1 29 14 24 11
25 24 21 34 8 2 13 25 14 6 13 11 12 13 14 12 12 10 7 7 16 21 9 22 23 24 25 13 10 13 17 18 -1 2 5 36 10 -21
29 16 34 5 1 19 19 13 7 9 8 8 9 10 10 9 9 10 12 14 9 9 23 10 7 21 16 6 1 14 27 9 16 1 5 18 13 10
26 23 2 2 25 13 13 7 10 11 10 9 10 9 9 9 8 6 5 6 6 9 8 20 17 7 4 14 20 8 8 11 21 4 20 18 4 0
10 1 9 25 9 12 8 6 7 5 7 9 10 8 5 5 7 8 8 8 5 5 8 8 9 29 21 6 5 6 9 14 19 18 9 11 10 13
-0 23 15 15 3 7 6 11 15 16 14 11 12 14 19 18 15 13 14 13 14 17 14 7 8 4 7 27 36 21 9 1 2 1 -7 -7 7 7
Height
5600 5590 5581 5570 5559 5546 5531 5513 5491 5487 5495 5486 5461 5452 5434 5414 5399 5383 5377 5374 5369 5363 5358 5353 5349 5348 5348 5350 5353 5358 5364 5371 5380 5388 5402 5416 5422 5433
5582 5573 5562 5550 5537 5521 5504 5487 5469 5446 5439 5448 5433 5418 5404 5389 5378 5357 5349 5343 5340 5335 5330 5327 5324 5324 5324 5325 5328 5332 5338 5345 5353 5359 5371 5385 5393 5405
5564 5553 5540 5524 5509 5494 5477 5460 5442 5423 5403 5411 5398 5389 5377 5361 5355 5342 5326 5317 5314 5311 5305 5303 5300 5298 5299 5301 5303 5307 5311 5318 5326 5334 5344 5360 5368 5376
5544 5530 5515 5499 5483 5465 5449 5434 5417 5403 5384 5372 5374 5361 5348 5340 5328 5319 5310 5301 5293 5289 5281 5279 5275 5273 5272 5275 5276 5280 5285 5290 5299 5308 5314 5331 5348 5361
5521 5506 5489 5472 5457 5439 5424 5409 5396 5383 5369 5353 5346 5339 5326 5315 5307 5300 5291 5284 5276 5267 5260 5255 5249 5243 5244 5248 5251 5253 5255 5261 5270 5284 5296 5310 5325 5336
5498 5480 5463 5445 5428 5414 5401 5389 5375 5361 5350 5337 5323 5316 5305 5298 5286 5275 5273 5266 5260 5247 5240 5233 5225 5221 5222 5222 5222 5225 5227 5233 5244 5258 5272 5288 5304 5317
5474 5455 5438 5422 5406 5392 5377 5367 5354 5342 5331 5316 5302 5293 5286 5276 5264 5258 5250 5245 5242 5227 5220 5218 5205 5206 5202 5200 5199 5200 5201 5205 5217 5233 5251 5269 5286 5300
5448 5433 5416 5400 5387 5376 5364 5351 5338 5323 5310 5294 5284 5275 5268 5257 5248 5239 5232 5226 5224 5212 5203 5203 5193 5193 5189 5185 5183 5180 5180 5186 5198 5215 5234 5252 5268 5283
5423 5408 5396 5381 5368 5358 5349 5336 5326 5314 5296 5277 5268 5259 5250 5241 5233 5226 5220 5212 5206 5200 5193 5194 5186 5185 5181 5178 5174 5171 5171 5177 5187 5204 5223 5239 5254 5268
5400 5386 5374 5365 5352 5338 5328 5319 5308 5296 5280 5269 5256 5245 5236 5229 5221 5214 5208 5204 5197 5191 5186 5185 5183 5181 5179 5177 5173 5168 5167 5171 5181 5198 5215 5230 5245 5259
5383 5369 5356 5347 5336 5322 5309 5298 5289 5279 5270 5257 5245 5236 5228 5221 5213 5208 5202 5195 5192 5187 5183 5182 5180 5179 5177 5175 5170 5166 5165 5170 5181 5196 5210 5222 5235 5248
5368 5355 5343 5329 5318 5305 5292 5280 5272 5266 5258 5249 5239 5231 5224 5218 5210 5203 5197 5192 5187 5183 5179 5178 5178 5177 5176 5172 5170 5169 5169 5172 5181 5193 5204 5215 5225 5236
5349 5340 5328 5313 5300 5288 5276 5265 5259 5253 5247 5240 5234 5227 5221 5214 5207 5202 5196 5191 5186 5181 5177 5177 5176 5176 5175 5173 5170 5171 5172 5174 5179 5187 5196 5205 5215 5226
5328 5318 5306 5293 5282 5272 5263 5258 5252 5246 5241 5235 5229 5222 5215 5210 5204 5199 5194 5189 5184 5181 5177 5174 5174 5174 5174 5173 5172 5173 5174 5175 5179 5185 5191 5197 5204 5213
5308 5296 5284 5275 5267 5261 5256 5250 5246 5241 5236 5230 5224 5217 5211 5207 5202 5198 5192 5187 5182 5179 5176 5174 5172 5171 5170 5170 5172 5174 5178 5179 5182 5188 5189 5195 5201 5208
5292 5282 5272 5265 5259 5254 5249 5245 5241 5236 5230 5224 5220 5215 5210 5206 5202 5197 5192 5187 5182 5177 5174 5172 5171 5170 5169 5171 5173 5176 5179 5182 5186 5189 5193 5199 5205 5212
5280 5271 5265 5260 5255 5250 5246 5242 5238 5233 5228 5223 5219 5214 5209 5205 5201 5198 5194 5189 5183 5178 5173 5170 5171 5172 5171 5172 5175 5179 5182 5186 5190 5195 5200 5207 5213 5220
5273 5265 5260 5255 5251 5248 5245 5241 5236 5232 5228 5223 5218 5214 5210 5207 5203 5200 5196 5191 5186 5181 5177 5174 5176 5176 5176 5177 5179 5183 5187 5192 5196 5202 5208 5213 5219 5226
5268 5262 5256 5253 5250 5247 5244 5240 5236 5233 5228 5224 5220 5217 5213 5210 5207 5204 5200 5196 5191 5187 5184 5182 5181 5182 5182 5183 5185 5188 5192 5197 5202 5209 5214 5219 5226 5230
5264 5260 5256 5253 5250 5246 5243 5240 5237 5233 5230 5226 5223 5219 5216 5213 5210 5207 5204 5200 5196 5193 5191 5190 5187 5189 5189 5190 5193 5195 5198 5202 5207 5213 5219 5225 5231 5237
5264 5260 5257 5254 5250 5246 5244 5241 5238 5235 5232 5228 5224 5221 5218 5215 5213 5209 5207 5205 5201 5199 5197 5195 5194 5195 5196 5197 5199 5202 5205 5208 5212 5217 5222 5228 5235 5241
5265 5262 5258 5254 5251 5248 5245 5242 5238 5235 5231 5228 5225 5222 5219 5216 5213 5211 5209 5207 5205 5203 5202 5201 5200 5199 5200 5202 5204 5206 5209 5212 5215 5220 5226 5231 5237 5243
5267 5263 5260 5256 5253 5250 5246 5242 5238 5234 5230 5227 5224 5221 5218 5215 5213 5211 5210 5208 5206 5205 5204 5204 5204 5205 5205 5205 5206 5209 5212 5215 5219 5224 5229 5234 5239 5244